Back to catalog

STARLINK-31176

AliveCommunicationsVLEO
NORAD 58745·PAYLOAD·🇺🇸 United States

Launched Jan 7, 2024 from Cape Canaveral Space Force Station

Loading…

Next Passes (next 24 hours)

TLE

FreshSource: CelesTrak SupGP

Epoch: Sep 14, 2026, 14:38 UTC

1 58745C 24005T   26257.61020833 -.00025373  00000+0 -91912-3 0  2578
2 58745  43.0023 232.9125 0001486 269.4623 166.3597 15.27586526    13

Track STARLINK-31176 in real time with AllMySat

Download on the App Store